Temp
26 26 26 26 26 25 25 25 25 25 25 25 25 25 25 25 26 26 26 26 26 25 25 25 26 26 26 26 26 26 26 25 25 25 25 25 24 25 25 25 25 25 25 25 25 25 25 25 25 25 25 25 25 26 26 26 25 25 25 25 25 25 25 25 25 26 26 26 26 27 27 26 26 26 25 25 25 25 25 25 25 24 24 24 25
27 26 26 26 26 25 25 25 25 25 25 25 25 25 25 25 25 26 26 25 25 25 25 25 25 25 26 26 26 26 25 25 25 25 25 25 25 25 25 25 25 25 25 25 25 25 25 25 25 25 25 25 25 26 26 26 26 26 26 25 25 25 25 25 25 26 26 26 26 26 26 26 26 26 25 25 25 25 25 25 24 24 24 24 25
27 26 26 26 26 25 25 25 25 25 25 26 26 26 26 25 25 25 26 26 25 25 26 26 25 25 25 25 25 25 25 25 25 25 25 25 25 25 25 25 25 25 25 25 25 25 25 25 25 26 26 25 25 25 26 26 26 26 26 26 26 26 25 25 25 25 26 26 26 26 26 26 26 26 25 25 25 25 24 25 25 25 25 24 25
28 27 26 26 26 26 26 26 26 26 26 26 26 27 27 26 26 25 26 26 26 25 25 26 25 25 25 25 25 25 25 25 25 25 25 25 25 25 25 25 25 25 25 25 25 25 25 25 26 26 26 26 25 25 26 26 26 26 26 26 25 25 25 25 25 25 25 25 25 25 25 25 25 25 25 25 25 25 24 24 24 25 25 25 25
28 27 27 27 27 26 26 26 26 26 27 27 27 27 27 27 26 26 26 26 27 26 25 25 25 25 25 25 25 25 25 25 25 25 25 25 25 25 25 25 25 25 25 25 25 25 25 26 26 26 26 26 26 26 26 26 25 25 25 25 25 25 25 25 25 25 25 25 25 25 25 25 25 25 25 25 25 25 25 25 24 24 24 25 25
29 28 27 27 27 27 26 27 27 27 27 27 28 27 28 28 27 26 26 27 27 27 26 25 25 25 25 25 25 25 25 25 25 25 26 26 25 25 25 25 25 25 25 25 25 25 25 26 26 26 26 26 26 26 26 26 25 25 25 25 25 25 25 25 25 25 25 25 25 25 25 25 25 25 25 25 25 25 25 25 25 25 24 24 24
29 28 28 28 28 27 27 27 27 27 27 27 28 28 28 28 28 27 27 27 27 27 27 26 26 25 25 25 25 25 24 25 25 25 25 26 25 25 25 26 26 25 25 26 26 26 26 26 26 26 26 26 26 26 26 26 26 26 26 25 25 25 25 25 25 25 25 26 25 26 26 26 26 26 26 25 25 25 25 25 25 25 25 24 24
29 28 28 28 28 27 27 27 27 27 27 27 27 28 28 28 28 27 27 27 27 27 27 27 26 25 25 25 25 25 25 25 25 25 25 25 25 25 25 26 26 26 26 26 26 26 27 27 27 26 26 26 26 26 26 26 26 26 26 26 25 25 25 26 26 26 26 26 26 26 26 26 26 26 26 26 26 26 26 26 26 26 25 24 24
29 28 28 28 28 27 27 27 27 27 27 26 27 27 28 28 27 27 27 27 27 28 28 27 27 26 26 25 25 25 25 25 25 25 25 25 25 26 25 25 26 26 26 26 26 26 27 27 27 27 27 26 25 25 26 26 26 26 26 25 25 25 25 26 26 26 26 26 26 26 27 27 27 27 27 27 27 27 26 26 26 26 25 24 24
28 28 28 28 28 27 27 27 27 27 26 26 26 27 27 27 27 27 27 27 27 27 27 27 27 27 26 26 25 25 25 25 25 25 25 25 25 26 26 25 25 26 26 26 26 26 27 27 27 27 27 26 26 26 26 25 25 26 26 25 25 25 25 25 26 26 26 26 26 27 27 27 27 27 27 27 27 27 27 26 26 26 25 24 24
28 28 28 28 27 27 27 26 26 26 26 26 26 26 27 27 27 27 26 26 26 27 27 27 27 27 27 26 26 26 26 25 25 25 26 26 25 25 25 25 25 25 25 26 26 27 27 27 27 27 26 26 26 26 26 26 25 26 26 25 25 25 25 25 25 26 26 26 26 27 27 27 27 27 27 27 27 27 26 26 26 25 24 24 24
28 28 28 28 27 27 26 26 26 26 26 26 26 26 26 26 26 26 26 26 26 26 26 26 27 27 27 27 26 26 26 26 25 26 26 26 26 26 25 26 26 25 26 26 26 26 27 27 27 27 26 26 26 26 26 25 25 25 25 25 25 25 24 24 24 25 25 26 26 26 26 26 26 26 26 26 26 26 26 25 25 24 24 24 24
28 28 28 27 27 26 26 26 26 26 26 26 25 25 26 26 26 26 26 26 26 26 26 26 26 26 27 27 27 27 27 26 25 26 26 27 27 26 25 26 26 26 26 26 26 26 26 26 27 27 26 26 25 25 25 25 25 25 25 25 25 24 24 24 24 23 23 24 25 25 25 26 26 26 26 25 25 25 25 25 24 24 24 23 24
28 28 28 27 27 26 26 26 26 26 26 25 25 25 25 26 26 26 26 26 25 25 26 26 26 26 26 26 26 27 27 26 26 26 26 26 26 26 25 25 26 26 26 26 26 26 26 26 26 26 26 26 25 25 25 25 25 25 24 24 24 24 25 25 24 24 23 23 23 24 24 25 25 25 25 24 24 24 24 24 24 23 23 22 22
28 28 28 27 27 26 26 26 26 26 25 25 25 25 25 25 26 26 26 26 26 25 26 26 26 25 25 26 26 26 27 27 26 25 25 25 25 25 24 24 25 25 26 26 26 26 25 25 25 26 26 26 25 25 25 25 25 25 25 25 25 25 25 25 25 25 25 24 23 23 23 24 24 24 24 24 25 24 24 23 23 23 22 22 21
28 28 28 27 27 27 26 26 26 26 26 25 25 25 25 25 25 26 26 27 26 26 25 26 26 25 25 26 26 26 27 27 26 25 25 25 24 24 23 23 24 25 25 25 25 25 25 25 25 25 25 25 25 25 25 25 25 25 25 26 26 26 27 27 26 26 25 25 25 24 24 24 24 24 24 24 24 23 23 22 22 22 21 21 21
28 28 28 27 27 27 26 26 26 26 26 26 26 26 25 25 25 25 26 27 27 26 26 26 26 26 26 26 26 26 27 26 26 25 25 25 24 23 23 23 24 24 25 25 25 25 25 25 25 25 25 25 25 25 25 24 24 25 25 25 26 26 27 27 27 26 26 26 26 25 25 25 24 24 24 23 23 23 22 21 21 22 22 22 23
28 28 28 28 27 27 27 26 26 26 26 26 26 26 26 26 25 25 26 27 27 27 27 27 26 26 26 26 26 26 27 27 26 25 25 25 24 23 23 23 24 24 24 24 25 25 25 25 25 25 25 25 25 25 24 24 24 24 25 25 26 26 27 27 27 27 27 26 26 26 25 25 24 24 23 23 22 22 21 21 22 23 24 24 24
28 28 28 27 27 27 27 26 26 26 26 26 26 26 26 26 26 26 26 27 27 28 27 27 27 27 27 27 26 26 27 27 26 25 25 25 24 24 23 24 24 24 24 25 25 25 25 25 24 24 24 25 25 24 24 24 24 24 24 25 26 26 27 27 27 27 27 26 26 25 25 24 24 24 23 23 22 22 23 23 23 23 24 24 24
29 28 28 28 27 27 27 27 27 27 26 26 26 26 26 26 26 26 26 27 27 27 28 27 27 27 27 27 27 26 27 27 26 26 25 25 25 24 23 24 24 24 25 25 25 25 25 25 25 24 24 24 24 24 24 24 24 24 24 25 26 26 27 27 27 27 26 26 25 25 25 24 24 24 24 23 23 24 24 24 23 23 24 24 24
29 28 28 28 27 27 27 27 27 27 27 26 26 27 26 27 27 27 27 27 27 27 28 28 28 27 27 27 27 27 27 27 26 26 25 25 25 24 24 24 24 25 25 25 25 26 26 26 25 25 25 24 24 24 24 24 24 24 24 24 25 25 25 25 25 25 25 25 25 24 24 23 23 24 24 25 25 26 26 25 24 24 24 24 24
28 28 28 28 28 28 27 27 27 27 27 27 26 27 27 27 27 27 27 27 27 27 27 27 28 28 27 27 27 27 27 27 26 26 25 25 25 24 24 24 24 25 25 25 26 26 26 26 26 25 25 25 25 25 25 25 24 24 24 24 24 24 24 24 24 24 24 24 24 23 22 23 23 24 25 25 26 26 25 24 24 23 23 22 23
28 28 27 28 28 28 28 27 27 27 27 27 26 26 27 27 27 27 27 27 27 27 27 27 27 28 28 28 27 27 27 27 26 26 25 25 25 24 24 24 24 24 25 26 26 26 26 26 26 26 25 25 25 25 25 25 24 24 24 24 24 23 23 22 22 22 22 23 22 22 21 22 23 25 25 25 25 24 23 22 22 21 21 21 21
28 28 27 28 28 28 28 27 27 27 27 27 26 26 26 27 27 27 26 27 27 27 27 27 27 27 28 28 28 27 27 27 27 26 25 25 25 25 24 24 24 24 24 25 26 27 27 26 26 26 25 25 25 25 25 24 24 24 24 24 23 23 22 22 21 21 21 21 21 21 22 23 24 24 24 23 23 22 21 21 21 21 21 21 21
28 28 28 28 28 28 28 27 27 27 27 27 27 27 26 26 27 27 26 27 27 27 27 27 27 27 27 28 28 28 28 28 28 27 26 25 25 24 24 24 24 23 24 24 25 26 26 26 26 25 25 24 24 24 24 24 24 23 23 23 23 22 22 21 21 22 21 21 21 22 23 24 24 23 22 22 22 21 21 21 21 21 21 21 21
28 28 28 28 28 28 28 28 27 27 27 27 27 27 27 27 27 27 27 27 27 27 28 28 27 27 27 27 28 28 28 28 28 28 27 26 25 24 24 24 24 23 23 23 24 24 25 25 25 24 24 24 24 23 23 23 23 23 23 23 22 22 22 21 21 21 21 22 23 23 24 24 23 22 22 21 21 21 21 21 21 22 22 21 21
28 28 28 28 28 28 28 28 28 28 28 28 27 27 27 27 27 27 27 27 28 28 28 28 28 28 28 28 28 28 28 28 28 28 27 26 25 24 24 24 24 23 23 23 23 23 23 23 23 23 23 23 23 23 23 22 22 22 22 22 22 22 21 21 21 21 22 22 23 23 23 22 22 21 21 21 21 21 21 21 21 22 21 21 20
28 28 28 28 28 28 28 28 28 28 28 28 28 28 28 28 28 28 27 28 28 28 28 28 28 28 28 28 28 28 28 29 29 28 28 27 26 24 24 24 23 23 23 23 23 23 23 23 23 23 22 22 23 23 23 22 22 22 22 22 21 21 21 21 21 21 21 21 21 21 21 21 21 21 21 22 22 22 21 21 20 21 21 20 21
28 28 28 28 28 28 28 28 29 29 29 29 28 28 28 28 28 28 28 28 28 28 29 29 29 28 29 29 29 29 29 29 28 28 28 28 27 26 25 24 24 23 24 24 23 23 23 23 23 23 23 23 23 24 23 23 22 22 22 21 20 20 20 20 20 20 20 20 20 20 21 21 21 21 21 22 22 21 21 20 20 20 20 20 21
28 28 28 28 28 28 28 28 29 29 29 29 28 27 27 27 28 28 27 27 27 28 28 28 28 28 28 29 28 28 28 27 27 27 27 27 26 26 25 25 24 24 24 24 23 23 23 23 24 24 24 23 23 24 24 23 22 22 21 20 20 20 20 20 20 20 20 19 20 20 21 21 21 21 21 22 22 21 20 20 20 20 20 21 22
28 28 29 29 28 28 28 28 28 29 29 30 28 26 25 25 26 26 26 26 26 27 27 27 27 27 27 27 27 27 26 26 26 26 26 26 25 25 25 25 24 24 24 23 23 23 24 24 24 24 24 24 24 24 24 23 23 22 21 20 20 20 20 20 20 20 20 20 20 20 21 21 21 21 21 21 20 20 20 21 21 21 21 21 22
28 28 29 28 28 27 28 28 28 28 29 29 28 27 26 25 24 24 24 25 25 25 26 26 26 26 26 26 26 25 25 25 25 25 25 25 24 24 24 24 24 24 24 23 22 23 24 25 24 24 24 24 24 24 24 23 23 22 21 20 20 20 20 20 20 19 19 20 20 20 20 20 20 20 20 19 19 20 21 21 21 21 21 21 21
28 28 28 28 27 27 28 28 27 28 28 28 27 27 27 27 25 23 22 22 23 23 24 24 25 25 25 25 25 25 25 25 25 24 24 24 24 24 24 24 23 23 23 22 22 23 24 25 24 24 24 24 23 23 23 22 21 21 20 20 21 20 20 19 18 18 19 19 19 19 19 19 19 19 19 19 19 20 21 21 21 21 21 21 22
28 28 28 28 27 27 28 28 28 28 28 27 27 27 27 27 27 24 21 21 21 21 21 22 22 23 23 24 24 24 24 24 24 24 23 23 23 23 23 23 22 21 21 22 22 23 24 24 24 23 23 23 22 21 20 20 19 19 19 20 20 20 19 18 17 18 18 18 18 19 19 19 19 19 20 20 20 20 21 21 21 21 21 21 22
27 27 27 27 28 28 28 27 27 27 27 27 27 27 27 27 27 26 24 23 22 20 19 20 20 21 21 22 22 23 23 23 23 23 22 22 22 22 22 21 20 20 20 20 21 22 23 23 22 21 20 20 19 18 18 18 18 18 18 18 18 18 18 17 17 18 18 18 19 19 19 19 19 19 20 20 20 20 21 22 22 22 21 21 21
27 27 27 27 28 28 27 27 26 26 26 26 26 27 27 27 27 26 25 24 22 20 18 18 19 19 20 21 21 21 22 22 21 21 21 21 21 21 20 20 19 18 19 18 19 19 19 19 19 18 18 18 17 17 17 17 17 17 17 17 17 17 17 17 17 17 17 18 19 19 18 18 19 19 20 21 21 21 21 21 21 21 21 21 21
26 27 27 27 27 27 26 25 25 25 25 25 25 26 26 26 25 25 24 22 20 18 17 16 17 17 18 18 19 20 20 20 20 20 19 19 19 19 19 19 18 18 18 17 17 18 17 16 16 17 17 17 17 16 16 16 16 16 16 16 16 17 17 17 17 17 17 18 18 18 17 18 19 19 20 21 21 21 21 21 21 21 21 21 20
22 23 24 24 25 25 25 24 23 24 24 25 25 25 25 24 23 23 21 19 18 17 16 16 16 16 16 16 17 18 19 18 18 18 18 18 18 18 18 18 18 17 17 17 17 17 16 16 16 16 16 16 16 15 15 16 16 16 15 15 16 16 16 17 16 16 17 17 18 18 18 18 19 19 19 20 21 21 21 21 21 22 22 22 22
22 22 22 22 23 23 23 23 22 23 24 24 24 24 24 23 21 20 19 18 17 17 17 17 16 16 16 16 17 18 18 18 18 18 18 17 17 17 18 18 18 17 17 17 16 16 15 15 16 16 15 15 15 15 15 15 15 15 15 15 16 16 16 17 17 17 17 17 18 18 18 18 18 19 19 20 20 21 21 21 21 22 22 22 22
23 22 21 22 22 22 22 22 22 22 22 22 22 22 22 21 19 18 18 18 18 18 17 17 16 16 17 17 18 19 19 19 19 19 18 17 17 17 17 18 18 18 17 16 16 16 15 15 15 15 15 15 15 15 15 15 15 15 15 15 16 16 16 17 17 17 17 17 17 18 18 18 18 18 19 19 20 21 21 21 21 21 21 21 21
23 22 21 21 21 21 20 20 20 20 20 20 20 20 19 18 18 17 17 17 17 16 16 16 16 16 16 17 18 19 19 19 18 17 16 15 15 15 15 15 15 16 16 16 16 15 15 14 14 14 14 14 14 14 14 15 15 15 15 15 16 17 17 17 17 17 17 17 17 18 18 18 18 18 18 19 19 19 20 20 21 21 21 21 22
22 22 21 20 20 20 20 19 19 18 18 18 17 17 16 16 16 16 16 16 15 15 14 14 14 15 16 16 17 17 17 16 16 15 14 14 13 13 13 13 13 14 14 14 14 14 13 13 13 13 13 13 13 14 14 15 15 16 16 17 17 18 18 18 18 18 18 18 18 18 18 18 18 18 18 18 19 19 19 20 20 20 20 21 21
21 20 20 20 19 19 19 18 18 17 16 16 16 16 15 15 15 15 15 15 14 14 14 13 13 14 15 15 15 14 14 14 14 13 13 12 12 12 13 13 13 13 13 13 13 13 13 13 13 13 13 13 13 13 13 14 14 15 16 16 16 17 17 17 17 17 17 17 18 18 18 18 18 19 19 18 18 19 19 19 20 20 20 20 21
20 19 19 19 18 18 18 17 16 15 15 15 15 15 15 14 14 14 14 13 13 13 13 12 12 13 13 13 13 13 13 12 12 12 11 11 11 12 12 13 14 14 14 14 14 14 14 14 13 13 13 13 13 13 13 13 14 14 15 15 15 15 15 15 15 15 16 16 17 18 18 19 19 19 19 19 19 19 19 19 19 19 20 20 20
19 19 18 18 18 17 17 16 15 15 14 14 14 14 14 14 13 13 13 12 12 12 12 12 12 12 12 12 12 12 12 12 12 12 12 12 12 12 12 13 13 14 14 14 13 13 13 12 13 13 13 13 13 14 14 14 14 15 15 15 15 15 15 15 15 16 16 16 16 17 18 19 19 19 19 19 19 19 20 20 20 20 20 20 20
18 18 17 17 17 16 16 15 14 14 14 13 13 13 12 12 12 12 12 12 11 11 11 12 12 12 11 11 11 11 11 11 11 11 11 11 11 12 12 12 13 13 13 13 13 13 12 12 12 12 13 13 13 13 13 13 13 14 14 14 14 15 15 15 15 16 16 15 15 16 17 18 18 19 19 19 19 19 20 20 20 20 20 20 20
16 16 16 15 15 14 14 14 13 13 12 12 11 11 11 11 10 10 10 10 10 10 11 11 11 11 11 11 10 10 10 10 10 10 10 10 10 11 11 11 11 12 11 11 11 11 11 11 11 11 11 11 11 11 11 11 12 11 12 13 13 14 14 14 15 15 15 15 15 15 16 17 18 19 19 18 18 19 19 19 19 20 20 20 20
15 15 14 14 13 13 12 12 12 12 11 11 10 10 10 10 9 9 9 9 9 9 9 10 10 10 11 10 10 9 9 9 9 9 9 9 9 9 9 10 10 10 11 11 11 11 11 11 10 10 10 10 11 11 11 11 11 10 10 11 12 13 13 14 14 14 15 15 15 15 16 17 17 18 18 18 18 18 18 19 19 19 19 19 19
13 13 13 12 12 12 11 11 11 10 10 10 9 9 9 9 9 8 8 8 8 8 8 8 8 9 9 9 9 9 9 9 9 9 8 8 8 8 8 8 9 9 10 10 10 10 11 11 11 10 10 9 9 10 9 10 10 10 10 10 11 12 12 13 13 13 14 14 14 15 16 16 17 17 17 17 17 18 18 18 18 18 18 19 19
11 11 10 10 10 10 10 10 9 9 9 9 8 8 8 8 8 7 7 7 7 7 7 7 7 7 7 8 8 7 7 8 8 8 8 7 7 8 8 8 8 8 8 8 8 9 9 9 9 8 8 8 8 8 8 8 9 9 9 9 10 10 11 11 12 12 13 13 14 14 15 15 15 16 16 16 16 17 17 17 17 17 18 18 19
8 8 8 8 8 8 8 8 7 7 7 7 7 7 7 7 7 6 6 6 6 6 6 6 6 6 6 7 7 7 7 7 7 7 7 7 7 7 7 7 7 7 7 7 7 7 7 7 7 6 6 6 6 6 6 7 7 7 8 8 9 10 10 11 11 12 12 12 12 12 13 13 13 14 14 14 14 14 14 14 15 15 16 17 18
Height
779 783 787 791 795 798 802 804 807 810 813 815 817 819 821 823 825 828 830 832 833 835 837 839 841 843 844 846 848 849 851 852 854 855 856 857 858 859 860 861 861 862 863 863 864 864 864 864 864 865 866 866 866 867 867 867 867 867 868 868 868 868 868 868 867 864 863 864 863 862 861 861 860 858 857 856 855 854 852 851 850 849 849 848 846
774 778 783 787 790 794 798 800 803 806 809 812 813 816 818 820 823 825 827 829 830 832 834 836 838 840 841 843 845 846 848 849 851 852 854 855 856 857 858 858 859 860 861 861 862 862 862 862 863 863 864 864 864 865 865 865 865 865 865 866 866 866 866 866 865 863 861 861 861 860 859 859 857 856 855 853 851 851 850 848 847 846 845 844 843
770 774 778 782 786 790 794 796 799 802 805 808 810 812 815 817 819 821 824 826 827 829 831 833 835 837 839 840 842 844 845 846 848 850 851 852 853 854 855 856 857 857 858 859 859 860 860 860 861 861 861 862 862 862 863 863 863 863 863 864 864 864 864 864 863 862 860 859 859 858 857 857 855 853 852 850 848 847 846 845 844 843 842 840 839
766 770 774 778 782 786 789 792 796 798 801 803 806 809 812 814 816 818 820 823 824 826 828 830 832 834 835 837 839 840 842 843 845 846 848 849 850 851 852 853 854 855 855 856 857 858 858 858 858 859 859 860 860 860 860 860 861 861 861 861 861 862 862 862 861 861 860 858 858 857 856 855 853 851 850 848 846 844 843 841 841 840 839 837 835
761 765 769 774 778 782 785 788 791 794 797 800 802 805 808 811 813 815 817 819 821 823 825 827 829 830 832 834 836 837 838 840 842 843 845 846 847 848 850 851 851 852 853 853 854 855 855 856 856 856 857 857 857 858 858 858 858 859 859 859 859 859 859 859 859 859 858 857 856 856 855 853 851 849 848 846 843 841 840 839 838 836 834 833 831
757 761 765 769 773 777 780 784 787 790 793 796 798 802 805 807 809 811 814 816 818 820 822 823 825 827 829 831 832 834 835 837 838 840 842 843 844 845 847 848 849 849 850 851 851 852 853 853 854 854 854 854 855 855 855 856 856 856 856 856 857 857 857 857 857 857 856 855 855 854 853 851 849 847 845 843 841 839 838 837 836 834 832 829 827
752 756 760 764 768 772 775 779 782 785 789 792 795 798 801 803 806 808 810 812 815 816 818 820 822 823 825 827 829 830 832 833 835 836 838 840 841 842 843 845 846 846 847 848 848 849 849 850 851 851 851 851 852 852 853 853 853 853 854 854 854 854 854 854 854 854 854 853 852 852 851 849 847 844 842 840 838 837 836 835 833 831 829 827 825
748 752 756 760 763 766 770 774 778 782 785 788 792 794 797 800 802 805 807 809 811 813 814 816 818 820 822 823 825 827 828 830 831 833 834 836 838 839 840 841 842 843 844 845 845 846 846 847 847 848 848 848 848 849 850 851 850 850 851 851 851 852 851 852 852 852 851 851 850 850 848 847 845 842 839 837 835 834 834 833 830 828 826 824 823
743 748 752 755 758 762 766 770 774 778 782 785 788 791 793 796 799 801 803 805 807 809 811 813 815 817 818 820 822 824 825 826 827 828 830 832 834 836 837 838 839 840 841 842 843 843 843 844 844 844 845 845 845 846 847 848 848 848 848 848 849 849 849 849 849 849 849 848 848 847 846 845 842 840 836 833 831 831 832 832 829 826 823 820 820
739 743 747 750 754 759 763 767 771 775 778 781 784 787 790 793 795 798 800 802 804 806 808 810 812 813 815 817 818 820 821 822 823 824 826 828 831 833 834 835 836 837 838 839 839 840 840 841 841 841 842 841 841 842 843 844 844 844 845 845 846 846 846 846 846 846 846 846 845 845 844 842 840 838 834 831 829 828 829 829 827 825 822 817 815
734 738 742 746 751 755 759 763 767 771 774 777 780 784 787 790 792 794 797 799 801 803 805 807 808 810 812 813 815 816 817 818 818 820 822 825 827 829 831 832 833 834 835 835 836 836 837 837 838 838 838 838 838 838 838 839 840 840 841 841 842 842 843 843 843 843 843 843 842 842 841 839 838 836 833 830 827 826 826 827 826 824 822 817 812
730 735 739 744 748 751 755 760 763 767 770 773 777 780 783 786 788 791 793 795 797 799 801 803 805 807 808 810 811 812 812 813 814 816 818 820 823 826 827 829 829 830 831 831 832 833 833 834 834 835 835 835 835 835 835 835 835 836 837 837 837 838 839 839 840 840 840 840 840 839 839 838 836 835 832 829 826 824 822 823 824 824 822 819 812
727 732 736 740 743 747 752 756 759 763 767 770 774 777 780 782 784 787 789 792 794 796 798 800 801 803 805 806 807 808 809 810 811 812 814 816 819 822 824 825 826 826 827 827 828 829 829 830 831 831 831 832 832 832 832 832 832 832 833 833 833 833 833 834 835 836 837 837 837 837 837 836 835 833 831 829 826 823 820 818 820 821 819 818 813
725 728 732 736 739 743 748 752 756 759 763 767 770 773 776 778 780 783 786 788 790 792 794 796 798 799 801 803 804 805 806 806 807 808 810 812 815 817 820 821 822 823 823 824 824 825 826 826 827 827 828 828 828 829 829 829 830 829 830 829 829 829 829 829 830 831 832 833 834 834 834 833 833 831 830 829 826 824 820 817 816 817 815 814 812
721 725 729 732 736 740 743 748 752 756 760 763 766 769 772 774 777 780 782 784 786 788 790 792 794 796 797 799 800 801 802 803 804 805 807 809 812 814 816 818 819 819 820 820 821 821 822 823 823 823 824 825 825 825 826 827 827 827 827 827 826 826 826 826 826 827 827 829 829 830 831 831 830 829 828 827 825 823 821 818 815 814 811 810 808
718 722 725 729 732 736 739 744 748 752 756 759 762 765 768 770 773 776 778 781 783 784 787 788 790 792 793 795 796 797 798 799 800 802 803 806 809 811 813 815 815 816 816 816 817 818 818 819 819 820 820 820 821 822 823 824 825 825 825 824 824 824 823 823 824 824 825 826 826 827 828 828 828 827 826 825 824 822 821 817 814 813 810 807 805
714 717 721 725 728 732 736 740 744 748 752 755 758 761 764 766 770 772 775 777 779 780 782 784 785 787 788 790 791 792 794 795 796 798 800 803 805 808 810 811 812 812 812 813 813 814 814 814 815 816 816 816 817 818 819 821 822 822 822 822 821 821 820 820 821 821 822 823 823 824 825 825 824 824 823 822 821 821 819 816 813 812 810 806 802
710 713 717 721 725 729 733 736 740 744 747 750 753 757 760 763 765 768 770 772 774 776 778 779 781 782 784 785 786 788 789 791 792 794 796 799 801 804 806 807 808 808 808 809 809 810 810 810 811 812 812 812 813 815 816 817 819 819 819 819 819 818 818 818 818 818 818 819 819 820 821 821 821 820 819 818 818 818 816 814 812 811 809 806 802
705 709 713 718 722 726 729 733 737 740 743 746 750 753 756 759 762 764 767 768 771 772 774 776 777 778 779 781 782 784 786 787 788 790 792 794 796 799 802 803 803 804 804 805 805 805 805 806 806 807 807 809 811 812 813 814 815 816 817 816 815 815 815 816 816 816 816 816 817 817 818 818 817 817 816 815 814 813 812 811 811 810 808 805 803
702 707 711 715 719 723 726 730 733 736 740 743 747 751 754 756 759 761 763 765 767 769 770 772 773 774 776 777 779 780 781 783 784 785 787 789 791 794 796 797 798 799 800 801 801 801 802 802 802 802 803 805 807 809 810 811 812 813 814 813 813 813 813 814 814 814 814 814 815 815 815 816 815 815 813 812 811 810 809 809 809 809 807 804 802
700 705 709 713 717 720 723 726 730 733 737 741 745 748 750 753 756 758 760 762 764 765 767 768 770 771 772 774 775 776 777 779 779 780 782 784 786 788 791 792 793 795 796 797 797 797 798 799 799 799 800 801 803 805 806 807 808 809 810 810 810 811 812 812 812 812 813 813 813 813 813 814 813 812 811 810 809 808 808 808 807 807 805 803 801
698 702 706 710 714 717 720 724 727 731 735 738 741 744 747 750 753 755 757 759 761 763 765 766 767 768 769 771 771 772 773 775 775 776 777 779 781 783 785 787 789 791 792 793 794 794 795 796 797 797 798 798 800 801 802 804 804 805 806 807 808 809 810 811 811 811 811 811 811 811 811 811 810 809 808 808 808 807 807 807 806 804 803 802 800
696 700 703 707 711 714 718 721 724 728 731 734 738 741 744 747 750 752 754 756 759 761 762 764 765 765 766 767 768 769 770 771 772 772 773 775 776 778 780 783 786 788 789 790 791 792 793 794 795 796 796 796 797 798 799 800 801 802 803 804 805 807 807 808 809 809 809 809 809 808 808 808 807 807 807 807 806 806 805 805 803 802 800 799 798
694 698 701 705 709 712 715 719 722 725 728 732 735 738 741 744 746 749 752 754 756 757 759 760 762 762 763 764 764 765 767 767 768 768 769 771 773 774 777 780 782 785 786 787 789 790 791 792 793 793 794 794 795 796 797 797 798 799 800 802 803 804 805 805 806 807 807 806 806 805 805 805 805 805 805 805 804 803 802 802 801 799 798 796 795
692 696 699 703 707 710 713 717 720 722 726 729 732 734 738 740 743 746 748 750 752 753 755 756 758 759 760 760 761 762 763 763 764 764 765 768 770 771 774 776 779 781 783 785 787 788 788 789 790 791 792 793 793 794 795 795 796 797 798 799 800 801 802 803 804 804 804 804 803 803 803 803 803 803 802 802 801 800 800 800 799 797 796 794 792
691 695 698 701 705 708 711 714 717 720 723 726 729 731 734 737 739 742 744 746 748 749 751 752 753 755 756 757 757 758 759 759 760 761 762 764 766 769 771 773 776 778 780 782 785 786 786 787 788 789 790 791 792 792 793 793 794 795 795 796 797 799 800 800 801 801 801 801 801 801 801 801 801 800 799 799 799 798 798 797 796 795 794 792 789
690 694 697 700 703 706 709 711 714 717 720 722 725 728 730 733 735 737 739 741 743 745 747 748 749 751 752 753 754 754 755 756 757 758 760 761 763 766 768 770 772 775 777 779 781 783 785 785 786 787 788 788 789 790 790 791 791 792 793 794 795 796 797 797 798 798 798 799 799 799 799 799 799 798 798 797 797 797 796 795 794 793 792 790 787
689 693 696 699 701 704 707 709 712 714 716 719 722 724 726 728 730 732 734 736 738 740 742 743 744 746 747 749 750 751 752 753 754 756 757 759 761 762 764 766 768 770 772 775 777 779 781 782 783 784 785 786 787 787 788 788 789 790 790 791 792 792 793 793 794 795 795 796 796 797 797 797 797 796 796 796 796 795 794 793 793 792 790 788 786
689 692 695 697 700 702 705 708 710 712 714 716 719 720 722 724 726 728 731 733 735 736 737 738 740 742 743 745 746 748 749 750 751 753 755 756 758 760 761 762 764 765 767 770 773 775 778 779 780 781 782 783 783 783 784 785 786 787 788 788 789 789 790 790 791 792 793 794 794 795 796 796 796 795 795 795 794 793 792 792 792 791 789 788 786
689 691 694 696 698 701 703 705 707 709 711 714 716 718 719 721 723 726 728 730 732 733 734 735 737 739 740 742 744 745 747 748 749 751 753 754 756 758 759 760 761 762 764 767 770 772 774 775 776 776 777 778 778 779 780 782 783 785 785 786 787 788 788 789 789 790 790 791 793 793 794 794 794 794 794 793 792 791 790 790 790 790 789 787 785
688 690 692 694 696 698 701 703 705 707 709 711 713 716 718 720 722 724 726 727 730 732 733 734 735 736 738 740 742 745 746 747 749 750 751 753 755 756 757 758 759 760 762 764 766 768 769 770 771 772 773 774 774 776 777 779 780 782 783 784 785 786 786 787 789 789 789 790 791 792 792 792 793 793 793 792 792 791 790 788 788 788 787 786 784
686 688 691 693 694 697 700 702 703 705 708 710 712 714 717 719 721 723 725 726 728 730 731 733 734 735 736 738 741 743 744 746 747 749 750 751 753 754 755 755 756 758 759 761 763 765 765 767 768 768 770 771 772 773 775 777 779 781 782 782 784 785 786 787 788 788 789 789 790 791 791 791 792 792 791 791 791 791 789 787 787 787 786 785 783
685 687 689 691 694 697 698 700 702 704 706 709 711 712 714 717 719 722 724 725 727 728 730 731 732 733 734 736 739 741 742 744 745 747 748 749 750 751 753 754 754 756 758 760 761 762 763 764 766 767 768 769 770 772 774 776 778 780 781 782 783 784 786 786 787 788 789 789 790 790 791 791 791 791 791 791 790 790 788 787 786 785 784 783 782
685 687 688 691 693 696 697 699 701 703 704 706 708 710 712 714 716 719 722 724 726 728 729 730 731 732 732 733 736 738 740 741 743 744 745 747 748 749 751 752 754 756 757 759 760 761 762 763 765 766 768 769 771 773 774 776 778 779 779 781 784 785 785 784 785 787 788 789 789 790 790 790 790 790 791 790 790 789 787 786 785 784 783 782 780
685 687 690 691 693 695 697 698 700 701 703 704 706 708 710 711 713 716 719 721 724 726 728 730 730 730 730 731 733 735 736 738 740 742 743 745 746 748 749 751 753 755 757 759 760 761 761 762 764 765 767 769 772 773 774 775 777 777 777 780 783 784 783 783 784 786 787 788 789 789 789 790 790 789 789 789 789 788 786 784 783 782 782 781 780
687 689 691 692 693 695 697 698 699 701 702 704 705 706 708 710 712 714 716 719 721 725 728 729 729 729 729 729 731 733 734 736 738 740 742 743 744 746 748 749 751 752 754 756 757 758 759 761 762 764 765 767 770 771 772 774 775 775 776 779 780 780 781 782 783 785 786 787 787 788 789 789 789 788 788 787 787 787 785 783 782 782 781 781 780
691 691 692 693 694 696 697 698 700 701 702 703 704 705 707 709 711 713 716 719 721 724 726 728 728 728 729 730 731 732 734 736 737 739 741 743 744 745 747 748 749 749 751 754 756 757 758 760 762 763 765 766 768 769 771 772 773 774 776 778 778 779 780 781 782 783 785 785 785 786 788 789 789 788 787 786 785 785 784 782 781 780 780 780 779
694 692 692 694 695 697 698 700 701 702 703 704 704 706 707 709 711 713 716 719 721 723 725 727 728 729 730 732 733 734 735 737 739 740 742 743 745 746 748 749 751 751 753 755 757 758 759 761 762 763 765 766 767 768 770 771 772 774 775 776 777 777 779 780 781 782 783 784 784 785 786 787 787 787 786 785 784 783 782 781 780 779 778 777 776
695 695 696 698 699 699 700 701 702 703 704 705 706 707 709 711 712 714 717 719 721 722 724 727 729 730 732 733 735 735 737 738 740 742 743 744 746 748 750 751 753 754 756 757 759 759 761 762 762 763 765 766 767 769 770 771 772 773 775 776 777 777 778 779 780 780 781 782 783 784 785 786 786 785 785 784 783 781 780 779 779 778 777 776 775
700 701 702 703 703 703 703 703 703 704 705 706 708 709 711 712 713 715 717 718 720 723 725 727 729 731 733 735 735 736 737 738 740 742 744 745 747 749 751 752 753 755 757 758 759 760 762 762 763 764 765 767 768 769 770 771 772 773 775 777 777 777 778 778 779 780 780 781 782 783 784 785 785 784 784 783 781 780 779 779 778 777 777 776 776
705 707 707 706 706 706 705 705 705 706 707 709 710 711 713 714 715 716 717 718 720 723 725 727 729 731 734 735 735 736 738 739 741 743 745 746 747 749 751 752 754 756 758 759 760 761 762 763 764 765 766 768 769 770 770 771 772 773 774 776 777 777 778 778 778 779 779 780 781 782 783 783 784 783 782 781 780 780 779 778 777 776 776 775 774
710 711 710 709 709 708 707 707 708 708 710 711 712 714 715 716 717 718 718 719 721 723 725 728 730 732 733 735 735 737 739 741 743 745 746 748 749 750 751 753 754 756 757 759 760 762 762 763 765 767 769 770 771 771 771 771 772 773 775 776 777 777 777 777 777 778 779 779 780 781 782 782 782 782 781 780 779 779 777 776 776 775 775 774 772
715 714 713 712 711 710 709 709 710 711 712 714 715 716 718 719 720 721 721 722 723 724 725 728 730 732 735 736 737 739 741 743 745 746 748 750 751 752 753 754 755 756 757 758 760 761 762 763 765 767 769 770 770 771 771 772 773 774 775 776 776 776 776 777 777 778 779 779 780 781 781 781 780 780 779 779 778 777 776 775 775 774 773 773 771
717 717 716 715 714 712 712 712 712 713 715 716 718 719 720 722 723 724 725 725 726 726 727 729 732 734 737 739 740 740 742 745 747 748 750 752 753 754 755 756 757 758 759 760 761 762 763 765 766 768 769 770 771 772 772 773 773 773 774 774 775 775 776 777 777 778 778 779 780 780 779 779 778 778 777 777 776 775 774 774 773 773 772 771 769
720 719 719 718 716 715 715 714 715 716 717 719 720 722 724 725 727 728 729 730 730 731 732 733 735 737 739 741 742 743 745 747 749 751 753 754 756 757 758 760 761 762 762 763 764 765 766 768 769 770 771 772 773 774 774 774 773 773 773 773 774 775 776 777 777 778 778 779 779 779 778 778 777 776 775 775 775 774 773 772 771 770 769 769 768
722 722 721 721 720 719 718 718 718 718 719 721 723 725 727 729 730 732 733 734 735 735 736 737 739 740 741 743 744 746 748 750 752 754 756 757 758 760 761 762 764 764 765 766 767 768 769 771 772 773 774 774 775 775 775 775 774 774 774 775 775 776 777 777 778 778 778 778 778 778 778 777 776 775 775 775 774 773 771 771 770 768 767 767 766
724 724 723 723 723 722 722 722 722 722 722 723 725 727 729 731 733 735 737 738 739 740 740 741 743 744 745 747 748 749 751 754 756 757 759 760 761 762 764 765 766 767 768 769 770 771 772 773 773 774 774 775 775 775 776 776 776 776 776 777 777 777 778 778 778 778 778 778 778 778 778 777 776 775 774 774 773 772 771 770 769 768 767 766 765
726 726 726 726 725 725 726 726 726 726 726 726 727 729 731 733 735 738 740 741 743 744 745 745 746 747 749 750 752 753 754 756 758 760 762 763 764 765 766 767 768 769 769 770 771 772 772 773 773 774 774 775 776 777 777 778 778 778 778 778 778 778 778 779 778 778 778 778 778 778 777 777 776 774 774 773 772 771 770 769 768 767 766 765 764
729 729 729 729 728 728 729 729 729 730 730 731 731 731 733 735 737 740 742 744 745 747 748 749 749 750 751 753 754 755 757 759 761 763 764 765 766 767 768 769 770 771 771 772 773 773 774 774 775 776 777 778 779 780 780 780 780 780 780 779 779 779 779 779 778 778 778 777 777 777 777 776 775 774 773 772 771 770 769 768 767 766 765 764 763
732 731 732 732 733 732 732 732 732 733 734 735 735 735 736 737 739 742 745 747 748 750 751 752 752 753 754 755 757 758 759 760 762 764 765 767 768 769 770 771 772 773 773 774 775 776 777 777 778 778 780 781 782 782 782 781 781 781 780 780 780 780 780 779 778 778 777 777 777 777 776 775 774 773 772 771 771 770 769 768 767 766 765 763 762
735 735 735 735 737 737 736 735 735 736 737 738 739 739 740 740 742 744 747 750 751 753 754 755 755 756 757 758 759 759 760 761 763 765 766 768 769 770 772 774 775 776 776 777 777 778 779 780 780 781 782 783 783 783 783 783 783 782 782 782 781 781 780 779 779 778 777 776 775 775 774 774 773 772 772 771 770 769 768 768 767 766 765 764 762
Wind_Speed
32 31 30 30 28 28 29 29 28 25 24 23 23 22 22 21 20 19 19 19 18 18 18 18 17 17 16 16 16 16 16 16 15 15 15 15 14 13 12 11 12 12 12 12 12 12 12 12 12 12 11 10 10 10 10 10 11 10 10 10 10 10 10 11 12 13 13 13 13 14 13 13 14 14 15 16 15 15 16 18 18 18 18 18 19
33 31 31 30 30 30 29 28 28 26 25 24 24 22 22 22 21 19 19 19 19 19 19 18 18 18 17 17 16 16 16 16 16 15 16 15 15 14 13 13 13 13 13 13 13 13 13 14 13 12 12 12 12 11 11 11 11 11 11 10 11 11 11 12 13 14 14 13 13 14 13 13 14 14 14 16 16 15 15 17 17 17 17 18 19
33 31 31 31 31 30 29 28 28 27 26 25 25 24 23 22 21 21 20 19 19 20 19 19 19 19 18 18 17 17 17 17 16 16 16 16 16 15 14 14 15 15 14 14 14 13 14 14 14 13 12 12 12 12 12 12 12 11 11 11 11 12 12 12 13 14 15 14 12 13 13 12 14 15 15 16 17 16 17 17 16 16 17 18 19
32 31 31 31 31 30 29 28 28 28 27 26 26 25 23 22 22 22 22 20 19 20 20 20 19 19 19 19 18 18 18 18 17 17 17 17 17 16 16 15 16 16 16 15 14 14 14 14 14 13 12 12 13 12 12 12 12 11 12 12 12 12 12 12 14 15 16 15 13 13 13 14 15 15 15 16 17 17 17 17 17 17 17 18 19
32 32 32 31 31 30 30 29 29 29 28 27 26 26 24 23 22 23 23 22 20 20 20 21 20 20 20 20 19 19 19 19 19 18 18 17 17 17 16 16 17 17 16 16 15 15 15 15 14 13 13 13 13 12 12 12 12 11 11 11 11 11 11 12 13 14 16 16 15 13 13 14 15 15 15 15 17 17 17 17 16 17 18 18 19
32 32 31 31 32 31 31 30 29 29 29 27 27 26 25 24 23 23 23 23 22 21 21 21 22 22 21 20 20 20 20 20 20 19 18 17 17 17 16 17 17 17 17 17 16 16 16 16 15 15 15 15 14 13 12 13 12 12 12 12 11 11 11 12 12 13 15 16 16 15 14 14 14 15 14 14 16 17 17 17 16 17 19 19 19
33 32 32 32 32 32 32 31 30 29 29 28 26 26 26 25 24 24 23 24 23 23 22 22 22 22 22 21 21 21 20 20 20 20 20 19 18 17 17 17 17 17 17 17 17 17 17 16 16 16 17 17 16 14 13 13 13 13 13 12 12 11 11 12 12 12 14 14 14 14 14 13 14 15 15 14 16 17 17 17 18 17 18 20 20
33 32 31 31 31 32 32 31 30 29 28 28 26 26 26 26 25 24 23 24 24 24 23 22 22 22 22 22 22 21 21 21 20 21 21 20 19 18 18 17 17 17 16 17 17 17 17 17 17 17 17 18 17 15 14 13 13 13 13 12 12 11 11 11 12 13 13 14 14 13 14 14 14 15 15 15 16 16 15 17 19 20 21 22 21
33 32 31 31 31 31 31 30 29 28 27 27 27 26 26 26 26 24 24 24 24 24 23 22 22 21 22 22 22 21 21 21 21 22 21 21 20 19 18 18 18 17 16 16 17 17 18 18 18 18 18 19 20 19 17 16 14 13 12 12 12 12 12 12 13 13 14 15 15 14 14 14 14 14 15 16 17 17 16 17 19 21 24 24 21
33 32 32 32 31 30 30 28 28 28 28 28 28 27 26 26 26 25 24 24 23 23 23 23 22 21 21 21 21 21 21 21 23 25 24 22 20 19 18 18 17 17 17 17 17 18 18 18 18 19 20 22 24 24 22 21 20 18 16 15 14 13 13 13 14 14 15 15 15 15 14 14 15 15 16 18 20 20 19 18 18 20 25 26 24
33 33 32 31 30 29 29 28 28 29 28 28 28 28 27 26 25 25 25 24 23 23 23 23 23 22 21 21 21 22 22 23 25 28 28 26 22 18 17 17 17 17 18 18 18 18 18 18 18 18 20 23 25 26 26 24 23 22 21 20 19 18 17 16 15 14 15 15 15 15 14 15 15 15 18 20 21 21 20 19 18 18 21 24 24
33 32 30 30 29 29 29 29 28 28 28 28 28 28 27 26 25 25 25 24 24 23 23 23 23 22 21 21 21 22 22 24 27 29 29 29 27 22 18 16 17 17 18 19 19 18 18 18 17 17 18 20 22 22 22 22 22 22 21 20 21 21 21 21 20 18 16 16 16 15 15 16 15 16 17 18 20 22 23 22 19 17 19 22 25
31 30 30 30 30 30 29 29 29 28 28 27 27 27 27 27 26 25 25 24 23 23 23 23 23 23 22 21 22 22 22 23 27 30 30 30 30 27 22 18 17 18 18 18 18 18 18 17 17 17 17 19 20 20 20 20 20 20 20 20 20 21 22 23 24 24 22 20 18 17 16 16 16 17 17 18 20 22 24 26 22 19 20 21 26
29 30 30 30 29 29 29 29 29 28 27 27 26 27 27 27 26 25 24 23 23 23 23 23 23 23 23 22 22 22 21 22 26 29 30 30 29 29 27 22 20 20 19 19 19 18 18 18 18 18 17 18 19 19 19 19 17 17 17 18 19 19 19 19 20 21 22 23 22 21 19 18 18 19 19 19 20 22 23 26 25 23 24 23 25
28 29 29 29 29 29 30 29 28 27 27 27 27 27 27 27 26 25 23 23 23 23 23 23 23 23 23 23 23 23 23 24 25 27 29 29 28 29 28 24 21 21 21 21 20 20 20 19 19 19 18 18 19 19 18 16 15 15 15 15 16 17 17 17 17 17 16 17 18 19 18 18 18 18 19 19 20 21 21 23 26 29 31 27 23
27 28 29 29 29 30 30 29 28 27 27 27 27 27 27 26 26 25 23 22 22 22 23 23 23 24 24 24 24 24 24 25 27 28 28 27 26 27 27 25 22 22 22 22 22 22 21 21 20 20 20 20 21 22 21 18 16 15 16 16 16 17 17 17 17 17 16 15 15 16 17 17 17 17 19 19 19 20 21 24 29 30 27 23 21
28 28 29 29 29 29 29 29 28 28 27 28 28 27 26 26 25 25 24 23 22 22 23 23 24 25 25 25 25 25 24 24 27 29 29 27 26 27 26 23 22 23 23 22 22 22 22 23 22 21 21 22 22 23 23 22 20 18 18 17 17 18 17 17 17 17 18 17 16 17 17 17 17 16 17 18 18 20 22 25 27 24 20 19 20
28 28 29 29 29 29 29 29 28 28 28 28 28 27 26 25 25 25 25 25 24 23 22 22 23 24 25 26 26 25 24 24 26 29 29 29 28 27 25 22 22 23 22 23 22 22 23 25 26 25 23 22 22 22 22 22 21 19 19 18 18 18 17 16 16 15 15 15 14 14 14 14 15 14 15 17 17 18 20 21 19 19 19 18 18
29 29 29 29 28 28 28 28 28 28 28 27 26 26 25 25 24 24 24 24 24 23 22 21 22 23 24 25 26 26 24 23 26 29 30 30 31 29 25 22 22 23 22 22 22 22 23 25 27 29 29 26 24 22 22 22 21 19 18 18 18 18 16 15 15 14 14 14 13 12 12 11 12 13 15 17 16 15 16 18 17 17 19 18 18
29 28 27 27 27 27 27 28 28 28 27 26 25 24 24 23 23 23 23 22 22 22 22 21 21 21 21 22 24 25 25 24 25 29 30 31 32 31 27 24 23 23 22 21 21 21 22 22 24 28 30 30 29 27 26 27 25 21 18 18 18 17 15 14 14 14 13 13 14 14 14 12 12 14 15 16 16 16 16 16 16 17 18 19 19
26 26 26 27 26 26 27 27 28 27 25 24 24 23 23 23 23 22 22 21 21 22 22 21 20 20 20 21 21 23 24 25 26 28 30 31 32 33 30 26 24 22 21 21 21 20 21 20 20 23 26 27 27 27 27 28 29 27 24 21 20 19 17 16 15 14 14 15 17 17 15 13 13 14 15 14 14 14 13 12 13 15 16 17 17
26 26 26 27 26 26 26 26 26 25 24 23 24 23 23 22 22 21 21 20 20 20 20 20 19 19 19 20 20 21 23 24 26 27 30 31 32 34 33 29 25 22 21 21 21 21 19 19 19 20 22 23 23 24 23 23 26 28 27 26 24 24 23 22 19 17 17 17 17 15 13 12 13 13 13 13 12 10 9 11 13 15 15 15 15
26 26 26 27 26 26 25 25 25 24 24 24 23 23 22 21 21 21 20 20 19 20 20 20 20 20 20 21 21 22 23 24 26 28 30 31 32 34 34 31 28 25 22 21 22 22 20 20 21 20 21 22 22 22 20 20 21 23 23 23 22 23 25 23 19 16 16 16 14 12 11 11 11 11 11 9 8 9 10 12 13 13 14 14 15
25 25 25 26 25 25 24 24 24 23 23 24 23 22 22 21 21 21 21 20 20 20 21 21 20 20 20 21 21 22 22 23 25 28 30 31 32 33 33 32 31 30 26 22 22 22 20 20 20 19 19 20 21 20 19 19 20 20 19 18 17 19 21 19 15 14 14 12 11 10 10 11 11 10 8 8 10 11 11 10 10 11 12 14 15
24 24 24 24 24 23 23 23 23 23 23 23 23 22 22 21 21 21 21 22 21 21 20 20 20 20 20 20 20 21 22 22 23 26 28 29 31 32 31 31 31 32 29 24 21 21 21 19 17 16 17 18 18 18 18 18 18 18 17 16 16 16 16 13 12 12 11 10 9 10 11 10 8 7 9 11 12 10 8 8 9 9 11 13 15
22 22 22 23 23 23 22 22 22 22 23 23 22 22 22 21 21 21 21 21 21 21 20 20 20 20 20 20 20 20 21 21 21 22 23 25 27 29 30 30 29 30 31 28 24 22 22 21 19 17 16 17 16 15 15 16 17 16 16 15 14 13 12 10 10 10 10 10 11 10 9 7 6 8 10 11 9 7 6 7 8 9 10 11 14
21 20 21 21 22 23 23 22 22 22 23 22 21 21 22 22 21 21 22 21 21 20 20 20 20 20 19 19 20 20 20 20 20 19 18 19 22 26 29 30 29 29 31 31 29 27 24 23 23 22 19 18 17 15 14 14 14 13 12 12 10 10 10 10 9 9 10 10 9 8 7 7 7 8 8 7 6 6 5 6 8 9 10 11 12
19 19 20 20 20 21 21 21 21 20 21 22 21 20 21 21 21 21 22 21 20 21 21 21 20 20 20 19 19 19 19 19 19 18 17 16 17 20 24 27 29 30 30 30 30 29 24 21 21 20 18 16 15 14 13 12 11 10 10 10 10 11 12 12 11 10 11 10 8 7 7 7 7 6 5 5 5 4 4 6 7 9 10 10 11
17 18 19 18 18 19 19 20 19 18 18 20 19 17 18 19 20 20 20 21 21 21 21 21 20 20 20 20 18 18 17 17 17 18 18 17 16 15 17 20 22 25 27 27 24 22 20 18 17 16 15 14 14 15 14 12 11 11 11 11 10 10 12 12 10 10 11 10 8 6 6 6 5 5 5 5 4 3 4 5 7 8 9 9 10
16 17 18 17 17 17 17 18 18 17 17 17 17 17 17 17 17 17 17 20 23 23 20 19 18 18 18 18 16 16 15 12 11 13 16 18 18 16 15 15 16 16 19 22 20 17 16 18 18 17 17 16 16 16 16 14 13 12 12 13 11 9 10 10 9 8 9 8 6 5 5 5 5 5 5 4 4 4 4 5 6 7 8 8 9
15 16 16 16 16 16 15 16 17 17 16 15 16 17 16 14 15 16 15 15 20 23 22 20 18 17 17 15 13 12 13 12 11 11 12 14 16 17 16 16 15 14 15 18 19 17 17 18 18 18 19 18 17 17 17 16 15 13 13 13 12 10 9 8 8 7 6 6 6 5 5 5 5 5 4 4 5 5 4 4 4 6 7 7 8
13 14 14 14 14 15 14 14 14 15 15 14 13 15 15 12 11 12 13 13 15 20 23 23 22 20 19 18 15 12 12 14 14 13 13 12 13 14 15 16 17 17 15 16 16 16 17 18 18 18 19 19 18 18 17 15 14 13 12 11 11 9 8 7 7 6 4 4 4 4 4 4 4 5 4 4 6 6 5 4 4 5 6 7 7
13 12 12 12 12 13 14 13 14 16 17 15 13 14 16 14 10 10 10 11 12 15 18 20 22 22 21 21 20 17 15 16 16 15 14 13 12 11 13 15 16 17 16 15 15 15 17 18 17 18 19 16 13 13 14 13 12 11 10 8 7 7 7 6 5 4 3 3 4 3 4 4 5 5 5 6 7 7 6 5 4 4 5 6 7
10 10 10 12 12 12 12 13 13 14 15 15 14 14 16 16 14 12 11 10 10 9 10 12 15 18 18 18 19 19 19 19 18 15 12 10 9 10 11 13 14 14 15 15 14 14 16 17 14 13 12 8 6 8 11 12 12 11 9 7 5 5 6 5 4 4 4 4 4 4 4 5 5 6 7 7 7 7 6 5 4 4 5 6 8
9 8 7 9 11 11 11 11 11 11 11 12 13 14 14 14 14 13 13 12 11 9 7 5 7 9 11 12 13 14 16 16 14 13 10 8 8 10 12 13 13 11 11 10 9 9 10 10 9 7 7 8 8 9 10 12 12 11 10 9 8 7 6 5 4 4 5 5 5 5 5 6 6 7 7 8 8 8 7 5 4 4 4 6 7
8 9 9 8 9 9 9 8 9 10 11 12 12 13 13 12 13 12 10 10 12 12 10 8 8 7 6 7 7 9 10 11 10 9 8 8 10 12 13 13 12 12 10 8 8 10 12 12 12 12 13 14 13 12 10 10 9 8 8 8 8 7 6 5 4 5 5 5 5 5 5 7 8 7 7 9 9 9 7 6 5 5 4 5 7
4 5 6 5 6 8 7 7 7 10 11 12 12 12 11 10 10 10 11 12 13 13 11 11 11 12 13 12 11 10 10 11 12 12 13 14 14 14 12 12 13 14 14 12 12 14 15 14 13 14 15 14 12 10 9 8 7 7 6 6 6 6 6 7 6 5 4 4 4 5 6 8 8 8 7 8 9 9 8 7 6 6 6 6 8
13 12 10 8 6 7 7 7 8 10 11 11 12 12 11 10 11 13 14 13 13 12 12 11 11 13 16 18 19 20 20 19 18 17 17 16 14 12 13 13 13 14 14 13 13 13 13 12 11 11 11 10 9 9 8 8 7 7 6 6 6 7 7 7 5 4 3 3 4 6 7 7 8 8 8 8 9 9 8 8 7 8 7 8 9
15 16 14 12 10 8 8 7 8 8 9 9 10 12 12 12 12 13 13 13 14 14 14 13 13 13 16 20 23 23 21 19 17 17 16 15 13 12 13 15 14 14 14 13 13 12 12 12 11 10 9 9 9 9 8 7 7 6 6 5 6 6 5 4 3 3 3 3 5 6 7 8 8 8 8 9 9 9 9 9 9 9 9 9 9
12 14 13 11 10 9 9 8 8 8 8 8 9 10 10 11 12 12 13 15 15 15 15 15 15 16 17 19 19 17 15 16 16 15 15 14 14 14 15 15 15 15 15 14 13 13 12 11 11 10 10 9 8 8 8 7 7 7 6 5 5 5 4 3 2 2 2 3 4 5 7 7 8 8 9 10 9 9 9 9 9 9 9 9 9
9 10 11 11 11 10 10 10 10 9 9 8 8 8 9 10 11 12 14 15 15 15 15 15 16 16 15 15 15 14 15 16 16 14 13 14 14 14 14 14 13 13 14 13 13 12 11 11 10 10 10 9 8 8 8 8 8 7 6 5 4 3 3 2 1 0 1 3 4 5 7 7 7 8 9 9 8 8 10 11 10 10 10 11 11
8 8 8 9 10 11 11 12 12 11 11 11 10 9 9 9 10 12 14 14 15 15 16 17 18 18 16 15 17 19 18 17 16 15 15 13 13 13 14 15 15 15 14 13 12 12 12 12 12 11 10 9 8 8 9 9 8 7 6 5 4 3 2 2 2 1 2 3 4 5 6 7 8 9 9 8 8 10 11 11 10 10 11 12 12
8 7 7 8 9 11 12 12 13 14 13 13 12 11 11 10 11 11 13 14 14 16 17 18 20 21 20 19 21 22 19 16 15 15 14 14 15 17 18 18 18 18 17 16 15 15 15 16 15 13 12 11 11 10 10 9 8 7 7 6 5 4 4 4 3 3 2 3 4 5 6 7 8 8 8 8 9 10 11 11 10 11 11 12 13
7 7 7 8 9 10 11 12 14 15 14 14 14 14 12 12 11 11 12 13 14 16 18 19 20 21 21 20 21 21 19 17 17 18 18 19 20 21 20 19 19 18 18 18 18 18 18 18 17 16 15 15 14 13 12 11 11 10 9 8 7 6 5 4 3 2 2 3 4 5 6 7 8 8 8 8 9 10 11 11 11 11 12 12 14
7 7 6 7 8 9 11 12 13 14 14 14 14 14 13 13 13 12 11 12 14 15 17 17 17 18 18 19 21 22 21 22 23 24 24 23 23 22 21 20 19 19 18 19 20 20 20 19 19 19 18 17 16 15 13 12 12 11 10 9 8 6 5 4 2 1 1 2 4 6 7 7 8 8 8 8 9 10 10 11 11 12 12 13 14
8 7 7 7 7 8 9 10 11 12 13 14 14 14 13 14 13 12 11 11 12 13 15 16 16 16 17 18 20 20 20 21 22 22 22 24 24 24 23 22 21 21 21 21 21 21 20 19 19 18 17 16 15 14 13 12 12 11 9 8 7 6 5 3 2 1 1 2 4 6 7 7 8 8 8 8 9 10 11 11 11 11 12 12 13
7 7 7 7 8 8 9 9 9 10 12 13 13 13 12 12 12 12 12 11 11 12 15 16 15 16 16 17 17 17 17 17 18 18 20 22 23 23 22 22 22 22 22 22 21 21 20 19 18 17 16 15 14 13 12 12 11 10 9 8 6 5 4 3 1 1 2 2 4 5 7 8 8 9 9 9 9 9 10 11 11 11 11 11 12
7 7 7 8 8 9 9 9 9 10 11 12 12 13 12 12 12 12 11 11 11 13 15 17 17 17 17 16 15 16 16 17 18 19 19 19 19 19 19 20 21 21 21 21 20 19 18 17 17 16 15 14 13 12 12 12 11 10 10 9 7 5 4 3 2 2 2 2 3 5 7 8 9 9 9 9 9 9 10 10 10 11 11 12 12
8 8 8 9 9 10 10 10 10 10 10 10 12 12 12 13 13 12 11 11 10 11 13 15 15 16 17 16 15 15 16 17 17 17 17 17 16 17 18 19 20 20 20 20 19 19 18 18 17 16 15 14 13 13 13 12 11 10 9 8 7 6 5 4 3 3 3 3 4 6 7 7 7 8 8 8 8 9 9 10 10 10 11 12 12
10 9 10 10 10 10 10 11 11 11 10 10 11 12 12 13 13 12 11 11 11 10 10 11 12 13 15 16 15 16 18 18 17 17 16 16 16 17 18 19 20 20 21 21 20 20 19 19 18 17 16 15 14 13 13 12 11 10 9 7 5 4 4 3 3 3 2 1 3 5 6 6 6 7 7 7 8 9 9 9 10 10 11 12 12
13 12 12 12 11 10 10 11 11 11 10 10 10 11 12 13 14 13 11 11 11 11 11 11 12 14 16 17 17 19 21 21 21 20 20 19 19 19 19 19 19 19 19 20 20 19 18 18 18 17 16 15 14 14 14 13 13 12 10 8 6 5 5 4 4 4 3 3 4 5 5 5 5 6 6 7 7 8 8 9 10 10 11 12 12
Wind_Direction
190 191 193 194 195 197 199 199 200 200 200 199 199 202 204 205 206 205 205 205 205 205 207 209 210 211 213 214 216 218 219 221 222 223 224 223 222 224 225 224 225 230 233 232 231 231 232 233 234 234 235 236 239 243 243 241 240 241 241 240 241 242 239 243 258 271 276 276 277 280 283 284 282 276 274 278 280 278 282 287 288 285 276 270 269
189 190 191 193 194 195 196 196 196 198 198 198 200 202 203 204 204 203 203 204 204 205 207 209 211 212 213 214 214 214 215 217 219 222 223 222 220 221 222 222 224 227 231 231 231 231 233 235 236 236 235 235 238 243 245 244 243 243 242 240 244 246 241 240 253 268 276 277 277 279 280 278 277 275 271 273 277 274 271 273 274 273 270 268 267
189 188 189 191 193 194 194 194 195 196 197 198 200 202 203 203 202 201 203 204 204 206 208 209 210 211 212 213 212 212 213 214 217 219 221 220 219 220 221 221 222 224 227 230 231 231 232 235 237 237 234 232 235 241 245 245 245 246 246 245 248 251 247 244 252 267 279 284 285 284 285 282 279 277 274 273 275 274 272 272 271 267 266 267 267
189 187 189 190 191 192 193 194 195 197 199 200 201 203 203 202 201 201 203 204 204 206 208 209 210 209 211 211 210 211 212 213 214 216 217 218 219 221 222 222 223 225 227 230 231 231 232 234 237 237 233 232 233 238 242 242 239 241 245 246 248 251 252 252 257 268 277 284 286 285 287 287 284 283 282 279 277 273 270 272 272 270 270 270 267
189 188 189 190 190 192 193 195 197 198 199 201 202 203 203 202 201 201 203 205 205 205 206 208 208 208 209 210 210 211 211 211 212 214 216 216 218 221 222 223 224 227 229 230 230 230 233 235 238 237 234 233 233 235 239 239 236 237 241 244 245 249 255 258 261 266 272 279 285 285 285 285 286 288 288 287 285 280 275 272 271 271 273 275 273
189 188 189 189 190 192 193 195 198 199 199 201 202 202 202 201 201 201 203 204 205 205 205 206 207 208 208 210 211 212 212 211 211 213 215 216 217 219 221 224 226 228 230 231 230 231 233 235 237 237 235 235 235 235 235 235 236 238 240 242 243 247 253 256 258 263 269 276 281 284 285 286 288 290 288 288 287 285 285 285 284 279 275 274 274
187 188 189 190 190 192 193 195 197 198 199 200 201 200 201 201 201 202 203 203 204 205 205 205 206 207 208 210 212 212 211 210 211 212 215 216 217 218 220 223 226 228 231 231 232 232 234 235 235 234 234 236 236 235 233 234 240 243 241 241 243 247 252 256 258 262 268 273 277 281 286 289 290 289 287 286 283 281 284 289 291 289 282 276 274
187 187 189 190 190 191 193 194 195 196 196 198 199 199 199 200 201 201 202 203 204 205 206 205 205 206 208 211 212 211 210 210 210 211 213 214 216 218 220 223 227 229 231 232 233 234 236 237 237 236 235 236 236 234 230 232 239 245 245 241 240 243 249 256 261 265 269 272 276 281 286 288 289 288 287 285 282 278 279 287 292 294 291 283 278
186 186 188 190 190 189 190 191 192 193 194 195 196 197 198 198 199 200 201 203 205 206 207 207 205 206 208 210 211 211 210 210 210 211 211 212 215 218 220 223 226 229 231 234 235 235 237 239 240 239 237 238 241 241 236 232 235 241 244 242 241 244 249 253 258 262 266 270 274 279 283 284 283 284 286 286 285 284 287 289 291 293 295 292 287
184 186 188 189 188 186 186 188 189 190 192 193 194 196 196 197 198 199 200 203 204 205 207 208 208 208 208 209 209 210 211 212 215 216 215 212 212 216 220 222 225 227 230 233 236 236 237 240 242 242 242 244 248 252 251 247 248 251 250 246 244 246 250 253 253 257 262 267 272 276 278 279 280 283 286 286 287 289 291 292 292 296 301 300 298
184 186 187 186 184 183 183 185 187 189 191 192 192 194 195 196 197 198 199 202 203 204 205 207 209 210 210 210 209 210 212 214 219 223 224 220 215 212 217 221 223 226 229 232 235 237 238 240 241 242 243 246 251 257 261 260 259 260 259 257 253 250 250 252 252 255 258 263 266 269 272 275 279 283 284 285 289 292 293 295 296 300 303 301 301
185 185 185 183 181 181 182 184 186 188 189 190 191 193 194 195 196 196 199 201 202 203 205 206 209 211 212 212 212 213 215 217 222 228 229 228 224 218 217 221 223 226 229 231 234 236 238 238 239 239 240 243 247 253 261 264 264 264 264 264 262 258 255 253 252 253 256 261 264 265 269 274 277 279 280 286 294 297 297 298 299 298 298 298 298
185 183 182 181 180 181 182 184 187 187 188 189 190 191 193 195 196 197 199 201 201 203 206 206 208 210 212 215 216 217 218 219 225 231 232 232 231 226 222 223 226 228 229 231 233 234 234 234 236 236 237 241 244 245 250 259 265 267 268 269 268 266 263 258 253 251 252 255 260 262 264 268 270 272 277 287 296 298 297 299 302 303 299 297 298
184 182 181 182 181 182 183 186 187 187 188 188 189 191 194 196 198 199 200 202 202 204 206 206 208 210 212 215 218 221 222 223 227 233 233 233 233 231 226 225 229 231 231 232 233 233 233 232 233 234 235 236 240 242 244 249 254 259 264 266 267 268 268 266 262 257 253 250 252 255 257 260 265 271 278 285 289 291 295 298 303 306 301 296 294
184 182 182 183 183 183 185 186 188 187 187 189 191 194 197 198 200 201 202 203 203 204 206 207 208 210 212 216 220 224 226 226 228 233 235 234 234 232 229 227 229 233 233 234 235 234 234 233 234 236 236 234 236 238 240 242 245 249 252 255 258 259 261 262 262 262 258 252 251 251 254 259 264 270 276 281 283 286 291 294 297 299 298 295 293
182 182 183 185 185 186 186 186 187 187 188 191 194 197 199 199 200 201 203 205 205 205 207 209 210 211 213 216 220 225 228 227 228 232 234 234 233 230 228 227 229 232 234 234 234 234 234 233 234 236 236 236 238 239 239 240 244 250 253 254 256 257 257 256 255 253 251 252 252 252 255 263 270 274 279 281 282 285 288 289 291 294 295 295 293
183 182 185 187 187 186 186 186 187 188 190 194 197 199 199 199 200 200 202 205 206 206 208 210 211 212 214 215 218 223 227 227 228 231 233 232 230 226 224 225 228 232 233 234 234 234 234 233 233 236 237 238 240 241 242 243 244 249 255 257 258 260 260 260 260 258 256 258 262 262 264 271 279 284 284 280 280 284 282 280 284 289 290 291 293
184 183 186 187 186 186 187 188 188 190 193 196 199 199 199 199 200 200 202 207 209 208 209 210 212 213 215 216 217 220 225 226 227 230 232 232 230 224 220 222 227 230 232 234 234 235 237 237 236 236 237 238 240 242 243 244 243 245 252 256 258 259 260 261 263 266 268 269 269 269 271 274 279 283 282 279 282 283 275 270 279 289 290 289 292
186 186 186 186 186 186 187 188 189 191 195 197 198 198 198 200 201 202 204 208 209 210 210 211 213 214 216 218 218 220 224 227 228 229 231 232 230 224 219 220 226 228 230 233 234 235 238 240 240 240 239 239 239 240 243 244 242 242 247 253 256 258 261 264 265 269 274 273 269 272 279 282 285 288 287 288 291 292 285 283 288 288 285 285 289
187 186 184 184 186 186 187 188 191 193 196 196 197 198 199 201 202 202 205 207 209 211 212 213 215 216 217 219 220 221 224 226 228 230 230 232 232 225 218 219 224 226 228 231 233 235 237 239 241 243 245 244 243 242 245 248 246 244 245 250 255 259 264 268 269 271 276 279 280 284 285 284 284 285 286 288 290 291 290 286 280 274 276 282 286
183 183 183 184 186 187 188 191 193 194 195 195 196 199 200 202 203 203 205 207 209 212 214 215 218 219 220 221 221 223 224 224 228 230 230 231 233 228 221 219 222 225 228 231 233 235 237 239 241 244 247 250 251 250 251 252 252 249 248 248 252 257 262 269 274 279 283 283 282 282 280 280 283 286 288 289 288 287 285 277 271 271 276 281 285
179 180 182 184 187 188 190 191 192 194 194 193 195 198 200 202 204 203 205 207 208 211 213 215 219 221 222 224 226 227 227 226 227 230 231 232 233 231 225 221 220 223 227 230 233 236 238 240 242 245 246 250 255 258 257 256 255 254 253 254 257 259 260 265 272 278 279 278 276 276 276 280 287 291 290 289 287 285 281 274 273 275 275 276 279
177 178 181 184 187 189 189 189 189 191 193 193 195 197 198 201 202 202 204 206 208 211 215 217 222 225 227 229 230 231 232 230 229 230 231 232 234 234 231 225 221 222 226 232 235 238 241 244 246 247 247 249 256 262 263 262 260 259 260 262 264 264 264 266 268 269 268 267 268 271 275 278 283 286 285 283 280 276 275 276 277 277 278 280 278
176 178 181 184 186 188 188 188 189 191 192 192 193 195 196 197 199 200 203 207 211 215 218 219 222 226 228 230 230 230 230 231 232 233 233 234 235 235 234 231 226 224 227 233 238 239 242 245 247 248 249 252 258 263 266 266 265 265 267 266 264 264 264 262 259 258 259 260 261 266 272 274 274 274 273 272 275 278 280 279 278 280 283 284 282
176 178 180 182 184 185 186 188 189 190 191 190 192 194 195 195 197 199 203 208 213 216 217 218 219 222 225 227 228 228 228 230 233 235 235 236 237 237 237 236 233 229 229 232 237 241 245 248 249 250 251 255 260 265 267 269 268 267 266 263 259 257 256 251 247 246 246 249 257 264 269 269 263 260 267 277 283 286 284 279 281 288 293 292 292
176 178 180 182 183 185 186 189 190 191 191 192 193 195 195 196 197 199 202 207 212 215 216 216 217 219 222 225 227 228 228 229 231 232 231 233 238 239 239 239 238 236 234 234 235 238 244 249 251 252 254 255 258 263 264 266 269 266 259 254 251 246 240 234 234 237 241 252 261 264 263 259 258 263 274 283 286 279 277 288 301 308 309 306 306
175 179 182 183 185 188 189 190 190 191 192 193 195 197 198 198 198 198 200 204 206 210 214 216 216 217 220 223 225 227 227 228 229 227 222 224 232 236 236 236 237 236 235 235 237 237 240 247 250 251 254 258 259 260 260 261 264 260 247 238 232 223 220 224 227 234 243 252 257 256 255 260 268 272 275 276 271 271 289 312 318 317 317 316 315
180 182 184 186 188 190 192 192 191 192 193 195 198 199 200 201 202 202 202 202 202 205 210 213 215 217 218 220 222 225 227 227 227 225 219 216 219 224 227 229 230 231 231 232 236 237 237 242 248 248 250 256 255 251 250 247 240 234 225 215 210 212 222 230 231 231 237 242 244 250 259 265 267 268 268 266 267 284 314 324 316 314 319 321 319
183 184 185 187 188 188 190 192 193 194 194 195 197 199 198 200 203 205 206 207 207 209 212 213 214 217 220 221 221 223 226 227 227 228 226 221 214 210 212 217 220 226 231 230 228 226 224 229 237 238 235 238 238 233 228 222 218 218 213 205 205 214 225 227 221 221 230 237 238 244 254 259 261 266 270 269 274 299 316 316 314 314 316 319 319
183 186 186 187 187 186 187 191 194 197 196 194 191 191 192 195 198 200 203 206 209 213 215 214 216 220 222 223 224 226 231 233 229 224 223 224 222 215 212 216 216 220 229 226 216 208 211 219 227 229 224 224 226 222 217 213 212 210 207 205 207 209 210 211 208 209 220 228 229 234 244 251 260 269 271 272 281 294 297 300 307 312 316 320 320
185 189 191 189 185 183 187 191 192 194 199 201 193 184 183 189 194 198 200 200 205 211 215 217 220 222 221 223 226 229 234 238 237 231 223 222 225 223 222 225 223 221 225 217 205 201 210 217 221 221 218 218 219 216 213 211 211 211 208 205 205 202 200 203 203 201 207 217 223 232 241 245 255 264 268 280 292 294 292 295 307 313 316 316 317
186 187 190 188 181 181 188 192 189 191 198 202 194 184 183 183 181 192 204 204 201 207 212 216 221 222 222 223 224 224 230 236 242 248 245 235 230 226 224 225 226 225 222 210 199 202 212 215 216 216 217 218 218 215 211 209 210 210 203 193 193 195 196 200 202 197 202 223 230 238 247 251 261 270 272 276 283 286 291 300 312 315 311 311 315
188 188 187 184 180 183 188 189 190 195 199 201 200 196 197 198 187 179 191 201 205 210 214 217 221 223 225 228 228 229 234 241 246 254 256 247 236 227 220 219 222 221 212 201 199 208 214 216 219 221 220 217 211 205 202 199 197 195 186 177 181 183 177 180 193 197 209 234 239 247 256 257 267 274 271 266 268 273 281 289 297 305 307 313 323
172 175 179 180 179 182 186 188 193 197 198 202 207 206 206 212 205 181 172 184 196 203 212 219 223 224 224 227 230 231 235 240 246 250 250 240 228 219 210 203 204 206 203 200 204 212 216 216 219 221 214 198 173 173 177 177 178 176 162 151 160 169 162 160 173 189 206 225 236 244 248 252 259 263 265 269 271 271 273 275 283 298 307 314 325
137 132 145 166 174 175 179 184 187 186 186 194 203 205 205 209 204 187 181 186 179 165 164 187 204 213 215 216 221 224 226 229 233 235 231 220 207 198 188 175 169 177 193 203 205 206 202 194 183 168 150 140 147 160 164 167 176 176 165 162 171 172 164 160 173 195 211 224 237 248 252 252 253 254 260 270 273 270 270 276 285 294 308 322 328
146 148 150 161 172 173 169 167 169 171 174 180 188 193 194 195 195 188 177 164 150 140 134 133 131 135 158 178 190 201 207 208 207 203 194 184 178 176 169 161 155 156 159 165 165 158 152 146 141 140 143 150 157 159 156 160 168 166 164 169 167 156 155 168 180 194 210 220 232 244 248 249 249 252 260 269 271 269 269 275 280 280 301 329 324
81 118 130 137 153 156 147 135 143 158 166 168 171 175 172 164 161 153 137 127 127 129 127 123 116 112 116 125 135 147 153 155 153 149 147 152 160 161 156 156 156 150 142 144 152 149 141 136 136 141 148 153 153 148 145 146 147 146 152 158 150 152 173 186 184 189 203 218 232 241 245 248 251 254 259 267 273 275 274 276 279 277 278 282 283
54 59 60 57 76 116 125 118 128 146 156 159 161 162 156 138 124 124 127 130 130 128 127 125 119 113 115 121 126 129 128 127 128 129 132 139 145 141 135 136 136 132 130 135 140 135 129 129 131 133 136 136 131 129 130 131 132 137 142 143 146 160 176 179 172 177 195 220 238 243 246 250 252 254 260 266 271 275 274 275 281 286 283 274 274
57 60 59 53 56 77 101 112 123 133 142 148 152 155 155 144 129 124 128 132 130 128 128 129 127 126 128 130 130 128 125 123 124 127 128 127 124 121 123 126 126 124 126 129 128 124 123 126 127 125 125 125 123 123 125 126 126 129 134 144 151 152 152 154 158 173 200 230 247 249 252 257 258 259 263 264 267 273 278 278 280 286 290 291 293
55 54 54 57 61 70 82 91 100 106 113 124 135 139 139 135 130 128 128 128 127 127 129 129 129 133 140 143 143 139 130 126 128 130 127 122 117 116 118 121 122 124 124 122 120 120 121 121 119 116 116 118 117 118 120 122 124 125 130 139 141 132 125 136 154 177 216 244 256 258 258 261 264 265 264 263 268 276 278 278 280 281 281 285 290
55 54 51 54 60 67 73 76 78 82 86 93 102 109 112 115 119 124 125 125 124 123 123 122 126 134 145 151 148 138 128 125 127 126 120 117 114 113 112 111 110 114 117 117 117 117 115 113 114 114 115 118 120 122 122 120 118 118 117 116 120 128 131 133 128 5 287 273 268 267 267 266 266 267 269 272 278 276 267 266 274 279 276 277 281
41 49 50 50 55 62 67 70 72 73 72 74 78 86 95 104 112 117 119 120 121 121 118 114 116 123 134 139 133 125 119 117 118 115 109 107 107 109 111 111 110 110 109 107 108 110 108 106 105 103 104 106 106 106 106 106 107 111 115 117 125 132 117 92 67 16 317 286 273 272 276 275 270 268 269 270 274 274 272 273 279 283 282 283 284
29 36 49 58 64 67 67 67 67 67 67 69 73 78 84 92 100 106 110 113 115 118 117 114 114 118 123 127 126 120 111 105 104 103 100 99 103 107 111 113 114 113 110 108 109 111 112 111 108 103 101 102 102 98 97 97 100 102 101 96 89 81 71 60 45 28 353 315 291 276 274 275 276 276 275 273 273 276 278 279 279 278 280 282 281
25 28 44 58 66 71 73 73 72 71 71 72 73 74 77 83 88 94 101 106 111 114 114 113 114 115 116 117 116 111 104 101 104 104 103 105 108 109 111 113 116 117 118 118 118 116 116 115 113 109 107 107 107 106 105 107 108 107 101 92 83 78 77 71 55 38 9 334 310 288 277 277 279 279 279 280 279 279 278 277 276 275 276 278 279
20 25 39 55 66 72 76 79 82 81 80 78 76 73 73 77 81 87 94 101 105 107 107 109 111 109 108 109 108 106 106 110 114 116 116 116 116 115 115 117 119 119 120 121 119 116 113 111 109 108 107 105 103 100 100 101 102 103 102 100 99 97 98 97 90 80 46 348 322 304 294 289 285 282 283 287 286 282 281 280 279 278 277 277 278
24 29 39 52 64 72 78 82 87 87 87 87 86 82 76 76 78 83 89 95 100 102 104 106 106 102 101 105 105 104 106 110 112 114 117 119 119 120 121 121 122 122 120 119 118 117 114 111 108 108 108 105 100 97 94 93 92 92 93 97 103 107 105 103 98 87 63 18 335 313 305 301 293 286 286 290 288 284 283 284 285 285 286 285 284
29 36 47 58 64 70 75 80 85 91 93 95 96 94 89 85 85 86 87 89 92 96 101 105 106 104 105 106 104 101 102 107 108 110 114 117 118 120 121 121 123 125 124 122 121 120 117 112 109 108 105 101 98 97 95 94 92 87 82 83 90 96 95 87 70 51 46 20 340 314 304 300 292 285 284 289 293 292 290 288 288 288 289 289 289
32 40 55 65 68 71 75 77 82 88 93 96 99 99 98 97 95 94 93 91 90 93 99 104 107 108 110 109 103 97 99 105 108 109 110 109 109 111 115 118 121 124 126 126 125 124 121 116 111 108 104 100 99 99 97 95 92 86 78 73 71 67 58 44 26 6 354 350 331 308 296 292 290 288 289 294 300 301 298 294 293 292 291 291 291
45 49 57 63 69 76 78 79 80 82 86 93 99 100 100 101 99 97 96 95 94 95 99 102 104 106 109 109 106 100 99 102 104 104 102 99 99 103 109 113 115 116 118 119 118 119 119 118 115 110 105 101 100 99 96 92 88 83 75 69 62 53 42 27 10 346 322 316 315 305 295 293 295 297 296 297 299 299 298 298 300 300 298 294 290
53 57 58 58 63 73 78 80 82 81 81 87 93 96 99 102 100 97 97 96 96 96 98 98 99 102 105 108 110 109 106 105 105 103 102 100 101 103 107 109 110 110 111 111 110 110 111 111 108 105 100 96 91 87 84 80 77 70 62 53 44 35 25 15 9 0 352 355 344 327 317 316 316 312 310 314 316 314 313 314 312 308 303 299 295
61 64 66 63 62 64 69 75 79 79 79 83 87 91 94 96 95 94 94 92 92 94 95 94 95 99 101 104 107 110 110 108 107 108 108 107 107 107 105 104 103 104 104 105 105 103 101 99 98 95 91 88 82 77 73 71 68 63 54 44 32 18 3 354 352 352 354 8 11 2 355 354 352 346 343 341 336 331 330 328 324 320 314 308 302